User: anonymous   Login
Location: Unspecified
(0.0000°N, 0.0000°E)
Time: 00:11:16
(UTC+00:00)
Language:

CRRES - Orbit

View from above orbital plane
View from above orbital plane
View from above satellite
View from above satellite

Ground track
Ground track

The orbit data is extracted from the following two-line orbital elements,

1 20712U 90065A   18112.42809231  .00000292  00000-0  26699-3 0  9992
2 20712  17.6314 142.8133 7111119  77.6489 347.7687  2.46095045236075
Epoch (UTC): 22 April 2018 10:16:27
Eccentricity: 0.7111119
inclination: 17.6314°
perigee height: 316 km
apogee height: 33275 km
right ascension of ascending node: 142.8133°
argument of perigee: 77.6489°
revolutions per day: 2.46095045
mean anomaly at epoch: 347.7687°
orbit number at epoch: 23607

The dashed part of the orbit path shows where the satellite is in the earth's shadow,  

DLR